{"data":{"norad_id":60437,"epoch":"2026-05-25T04:53:12.407712Z","epoch_age_seconds":67517,"freshness":"FRESH","line1":"1 60437U 24144N   26145.20361583  .00001246  00000+0  48021-4 0  9992","line2":"2 60437  53.1604 221.0356 0001099  71.1091 289.0030 15.34391453101033","mean_motion":15.34391453,"eccentricity":0.0001099,"inclination_deg":53.1604,"raan_deg":221.0356,"arg_perigee_deg":71.1091,"mean_anomaly_deg":289.003,"bstar":4.8021e-5,"rev_number":10103,"period_min":93.848280840235,"perigee_km":461.97683267597,"apogee_km":463.48045494448,"semimajor_km":6840.8656438102,"source":"CELESTRAK","updated_at":"2026-05-25T13:38:19.275152Z"}}